Powrót do katalogu

STARLINK-32204

AktywnyŁącznośćVLEO
NORAD 60584·PAYLOAD·🇺🇸 United States

Wystrzelony Aug 20, 2024 z Cape Canaveral Space Force Station

Loading…

Następne Przeloty (najbliższe 24 godziny)

TLE

ŚwieżeSource: CelesTrak SupGP

Epoka: Sep 15, 2026, 03:28 UTC

1 60584C 24150B   26258.14493056  .00051508  00000+0  15218-2 0  2585
2 60584  53.1572 142.9789 0001293  76.4758 330.3417 15.34365138    11

Śledź STARLINK-32204 w czasie rzeczywistym z AllMySat

Download on the App Store